AFR87WT LFPO-LFKJ

Flight info

Callsign AFR87WT
Flight time N/A
Altitude 37000
Route LATRA2E/07 LATRA DCT LAMUT DCT UTUVA DCT TITVA DCT NOQAS DCT OTROT DCT RETNO DCT KOLON DCT OMARD M623 VAREK
Aircraft A320/M-SDE3FGHIRWY/LB1

Departure

Time N/A
Airport Paris-Orly Airport (LFPO)

Arrival

Time 2026-04-25 19:20
Airport Ajaccio Napoléon Bonaparte airport (LFKJ)
Time Latitude Longitude Altitude Speed Heading
2026-04-25 18:51 43.69244 7.00720 37108 ft 428 kts 130°
2026-04-25 18:51 43.68602 7.01774 37108 ft 430 kts 131°
2026-04-25 18:51 43.62843 7.09622 37098 ft 442 kts 141°
2026-04-25 18:52 43.57872 7.14660 37095 ft 449 kts 148°
2026-04-25 18:52 43.52385 7.18874 36988 ft 457 kts 155°
2026-04-25 18:53 43.49497 7.20744 36692 ft 459 kts 155°
2026-04-25 18:53 43.46662 7.22759 36351 ft 459 kts 152°
2026-04-25 18:53 43.43967 7.24955 35876 ft 457 kts 148°
2026-04-25 18:53 43.41334 7.27426 35208 ft 457 kts 144°
2026-04-25 18:54 43.36239 7.32665 33813 ft 458 kts 143°
2026-04-25 18:54 43.33691 7.35293 33086 ft 459 kts 143°
2026-04-25 18:54 43.31135 7.37926 32325 ft 461 kts 143°
2026-04-25 18:55 43.28554 7.40581 31537 ft 462 kts 143°
2026-04-25 18:55 43.25983 7.43222 30740 ft 463 kts 142°
2026-04-25 18:55 43.23420 7.45852 29921 ft 465 kts 142°
2026-04-25 18:55 43.20820 7.48516 29058 ft 465 kts 142°
2026-04-25 18:56 43.18256 7.51141 28467 ft 463 kts 142°
2026-04-25 18:56 43.15678 7.53778 27953 ft 461 kts 142°
2026-04-25 18:56 43.13112 7.56354 27430 ft 457 kts 144°
2026-04-25 18:56 43.10552 7.58827 26831 ft 453 kts 143°
2026-04-25 18:57 43.07972 7.61338 26150 ft 451 kts 143°
2026-04-25 18:57 43.05447 7.63795 25454 ft 448 kts 143°
2026-04-25 18:57 43.02902 7.66266 24739 ft 446 kts 144°
2026-04-25 18:57 43.02033 7.67109 24495 ft 446 kts 144°
2026-04-25 18:58 42.97876 7.71131 23322 ft 443 kts 144°
2026-04-25 18:58 42.92872 7.75965 21900 ft 439 kts 144°
2026-04-25 18:58 42.90389 7.78361 21233 ft 436 kts 144°
2026-04-25 18:59 42.85461 7.83104 20083 ft 426 kts 144°
2026-04-25 18:59 42.80706 7.87671 19018 ft 416 kts 144°
2026-04-25 19:00 42.76035 7.92145 18146 ft 401 kts 144°
2026-04-25 19:00 42.73765 7.94312 18103 ft 400 kts 145°
2026-04-25 19:01 42.68699 7.97366 18101 ft 401 kts 162°
2026-04-25 19:01 42.66032 7.98539 18100 ft 400 kts 162°
2026-04-25 19:01 42.63406 7.99715 18100 ft 399 kts 161°
2026-04-25 19:01 42.60782 8.00923 18100 ft 398 kts 161°
2026-04-25 19:02 42.55549 8.03406 18097 ft 397 kts 160°
2026-04-25 19:02 42.52956 8.04655 18102 ft 397 kts 160°
2026-04-25 19:02 42.50369 8.05905 18102 ft 397 kts 160°
2026-04-25 19:03 42.46881 8.07592 18097 ft 397 kts 160°
2026-04-25 19:03 42.42572 8.09677 18103 ft 397 kts 160°
2026-04-25 19:03 42.39968 8.10938 18097 ft 397 kts 160°
2026-04-25 19:04 42.34761 8.13455 18093 ft 395 kts 160°
2026-04-25 19:04 42.32200 8.14691 17737 ft 392 kts 160°
2026-04-25 19:05 42.26979 8.17212 16046 ft 402 kts 160°
2026-04-25 19:05 42.21775 8.19720 14831 ft 397 kts 160°
2026-04-25 19:05 42.19160 8.20977 14267 ft 394 kts 160°
2026-04-25 19:06 42.16627 8.22194 13726 ft 389 kts 160°
2026-04-25 19:06 42.11585 8.24615 12677 ft 380 kts 160°
2026-04-25 19:06 42.09095 8.25808 12150 ft 376 kts 160°
2026-04-25 19:07 42.04242 8.28131 11118 ft 368 kts 160°
2026-04-25 19:07 42.01855 8.29272 10779 ft 358 kts 160°
2026-04-25 19:08 41.97360 8.31418 10458 ft 330 kts 160°
2026-04-25 19:08 41.95240 8.32428 10310 ft 317 kts 160°
2026-04-25 19:09 41.89254 8.35279 9573 ft 297 kts 160°
2026-04-25 19:09 41.88616 8.35581 9452 ft 296 kts 160°
2026-04-25 19:09 41.83495 8.38016 8530 ft 290 kts 160°
2026-04-25 19:10 41.81617 8.38908 8190 ft 287 kts 160°
2026-04-25 19:10 41.79720 8.39809 7852 ft 285 kts 160°
2026-04-25 19:10 41.77873 8.40683 7532 ft 283 kts 160°
2026-04-25 19:10 41.76031 8.41556 7206 ft 280 kts 160°
2026-04-25 19:11 41.74201 8.42423 6876 ft 278 kts 160°
2026-04-25 19:11 41.72388 8.43283 6550 ft 276 kts 160°
2026-04-25 19:11 41.70580 8.44137 6239 ft 274 kts 160°
2026-04-25 19:11 41.68807 8.44974 6119 ft 264 kts 160°
2026-04-25 19:12 41.67121 8.45770 6113 ft 249 kts 160°
2026-04-25 19:12 41.65549 8.46555 6105 ft 235 kts 152°
2026-04-25 19:12 41.64334 8.47893 6081 ft 220 kts 123°
2026-04-25 19:12 41.63728 8.49732 6102 ft 216 kts 98°
2026-04-25 19:13 41.63757 8.51702 6098 ft 211 kts 73°
2026-04-25 19:13 41.64353 8.53445 5854 ft 208 kts 55°
2026-04-25 19:13 41.65185 8.55010 5685 ft 199 kts 53°
2026-04-25 19:13 41.66002 8.56499 5316 ft 201 kts 53°
2026-04-25 19:14 41.66810 8.57998 5007 ft 199 kts 53°
2026-04-25 19:14 41.67082 8.58509 4898 ft 198 kts 53°
2026-04-25 19:14 41.68403 8.61008 4357 ft 197 kts 53°
2026-04-25 19:14 41.69185 8.62496 4033 ft 196 kts 53°
2026-04-25 19:15 41.69963 8.63983 3709 ft 195 kts 53°
2026-04-25 19:15 41.70730 8.65450 3404 ft 193 kts 54°
2026-04-25 19:15 41.71529 8.66895 3104 ft 190 kts 46°
2026-04-25 19:15 41.72570 8.67926 3037 ft 185 kts 28°
2026-04-25 19:16 41.73730 8.68670 3037 ft 185 kts 24°
2026-04-25 19:16 41.74907 8.69365 3035 ft 185 kts 23°
2026-04-25 19:16 41.76098 8.70077 3032 ft 185 kts 24°
2026-04-25 19:16 41.77277 8.70799 2970 ft 186 kts 24°
2026-04-25 19:17 41.78441 8.71524 2749 ft 185 kts 24°
2026-04-25 19:17 41.79598 8.72250 2504 ft 184 kts 25°
2026-04-25 19:17 41.80760 8.72979 2260 ft 183 kts 25°
2026-04-25 19:17 41.81909 8.73700 2017 ft 182 kts 25°
2026-04-25 19:18 41.83048 8.74412 1770 ft 174 kts 25°
2026-04-25 19:18 41.84108 8.75075 1533 ft 163 kts 25°
2026-04-25 19:18 41.85098 8.75694 1346 ft 149 kts 25°
2026-04-25 19:18 41.86007 8.76261 1132 ft 137 kts 25°
2026-04-25 19:19 41.86874 8.76802 962 ft 136 kts 25°
2026-04-25 19:19 41.87747 8.77351 797 ft 136 kts 25°
2026-04-25 19:19 41.88598 8.77891 601 ft 137 kts 25°
2026-04-25 19:19 41.88889 8.78076 538 ft 137 kts 25°
2026-04-25 19:20 41.90341 8.78967 248 ft 138 kts 25°
2026-04-25 19:20 41.91207 8.79509 63 ft 138 kts 25°
2026-04-25 19:20 41.91997 8.80005 15 ft 90 kts 25°
2026-04-25 19:20 41.92474 8.80303 16 ft 49 kts 24°
2026-04-25 19:21 41.92676 8.80430 19 ft 24 kts 25°
2026-04-25 19:21 41.92814 8.80304 19 ft 13 kts 295°
2026-04-25 19:21 41.92811 8.80203 19 ft 12 kts 230°
2026-04-25 19:22 41.92739 8.80135 18 ft 13 kts 206°
2026-04-25 19:22 41.92650 8.80083 17 ft 14 kts 205°
2026-04-25 19:22 41.92443 8.79946 14 ft 17 kts 205°
2026-04-25 19:23 41.92329 8.79875 14 ft 18 kts 205°
2026-04-25 19:23 41.92097 8.79734 14 ft 17 kts 205°
2026-04-25 19:23 41.91991 8.79667 14 ft 15 kts 205°
2026-04-25 19:24 41.91901 8.79610 15 ft 11 kts 205°
2026-04-25 19:24 41.91869 8.79582 14 ft 3 kts 246°
2026-04-25 19:24 41.91880 8.79542 14 ft 1 kts 337°
2026-04-25 19:25 41.91898 8.79535 15 ft 0 kts 345°